Starlink 35554

operational
NORAD ID: 66240 Int'l Des: 2025-245 Owner: SPXS Country: US Constellation: starlink
LEOCIRCULAR

Über Starlink 35554

Beschreibung wird geladen...

Live-Position

3D-Globus wird geladen...

Nächste Überflüge

Höhenverlauf

Altitude vs Time

uPlot chart will show altitude changes over time

Zweizeiliger Elementsatz

1 66240C 25245F 25303.07965278 .00474490 00000+0 74922-3 0 3036
2 66240 53.1599 182.3196 0005125 302.7189 157.7175 16.02626130 16
Epoch: 30. Okt. 2025 • Age: 27 hours

Aktueller Status

Höhe 270.7 km
Geschwindigkeit 7.75 km/s
Subsatellitenpunkt 37.63°N, 130.02°W
Startdatum 29. Okt. 2025
Alter 2 days
Typ internet

Technische Details

Klassifizierung Payload
Masse 575.00 kg
Trockenmasse 530.00 kg
Gesamtmasse 575.00 kg
Länge 0.30 m
Durchmesser 4.10 m
Spannweite 29.00 m
Form Box + pan
Hersteller SPXS
Bus-Typ Starlink V2MO
Phasenstatus In Orbit
Besitzer/Staat SPXS/US

Große Konstellationen

Loading constellations...